Ardmore, OK

10:50 PM CDT on March 22, 2017 (GMT -0500)
Ardmore Municipal

Weather History for KADM - January, 2012

Change the Weather History Date:

Sunday, January 8, 2012

  Actual Average Record
Temperature  
Mean Temperature 47 °F -  
Max Temperature 53 °F 50 °F 71 °F (2003)
Min Temperature 41 °F 32 °F 12 °F (2015)
Degree Days  
Heating Degree Days 18    
Moisture  
Dew Point 36 °F    
Average Humidity 67    
Maximum Humidity 81    
Minimum Humidity 47    
Precipitation  
Precipitation 0.00 in - - ()
Sea Level Pressure  
Sea Level Pressure 30.09 in    
Wind  
Wind Speed 4 mph (North)    
Max Wind Speed 13 mph    
Max Gust Speed 18 mph    
Visibility 10 miles    
Events      
Averages and records for this station are not official NWS values.
T = Trace of Precipitation, MM = Missing Value Source: NWS Daily Summary

Daily Weather History Graph

Daily Weather History Graph

Search for Another Location

Airport or City:

Trip Planner

Search our weather history database for the weather conditions in past years. The results will help you decide how hot, cold, wet, or windy it might be!

Date:

Astronomy

Jan. 08, 2012 Rise Set
Actual Time 7:34 AM CST 5:34 PM CST
Civil Twilight 7:07 AM CST 6:02 PM CST
Nautical Twilight 6:36 AM CST 6:33 PM CST
Astronomical Twilight 6:05 AM CST 7:03 PM CST
Moon 5:18 PM CST (1/8) 6:54 AM CST (1/8)
Length of Visible Light 10h 54m
Length of Day
9h 59m
Full, 100% of the Moon is Illuminated
Jan 8
Full
Jan 9
Full
Jan 16
Last Quarter
Jan 23
New
Jan 30
First Quarter

Hourly Weather History & Observations

Time (CST) Temp. Windchill Dew Point Humidity Pressure Visibility Wind Dir Wind Speed Gust Speed Precip Events Conditions
12:15 AM 41.0 °F - 35.6 °F 81% 30.04 in 10.0 mi Calm Calm - N/A   Clear
12:35 AM 42.8 °F - 35.6 °F 76% 30.04 in 10.0 mi Calm Calm - N/A   Clear
12:55 AM 42.8 °F 41.1 °F 37.4 °F 81% 30.04 in 10.0 mi North 3.5 mph - N/A   Mostly Cloudy
1:15 AM 44.6 °F 43.1 °F 37.4 °F 76% 30.04 in 10.0 mi NNE 3.5 mph - N/A   Overcast
1:35 AM 44.6 °F 42.2 °F 37.4 °F 76% 30.04 in 10.0 mi NNE 4.6 mph - N/A   Overcast
1:55 AM 44.6 °F 42.2 °F 37.4 °F 76% 30.04 in 10.0 mi North 4.6 mph - N/A   Overcast
2:15 AM 44.6 °F 42.2 °F 37.4 °F 76% 30.05 in 10.0 mi NNE 4.6 mph - N/A   Overcast
2:35 AM 46.4 °F 44.3 °F 37.4 °F 71% 30.05 in 10.0 mi North 4.6 mph - N/A   Overcast
2:55 AM 44.6 °F 43.1 °F 39.2 °F 81% 30.05 in 10.0 mi North 3.5 mph - N/A   Overcast
3:15 AM 46.4 °F 45.2 °F 39.2 °F 76% 30.05 in 10.0 mi North 3.5 mph - N/A   Overcast
3:35 AM 46.4 °F 43.5 °F 39.2 °F 76% 30.05 in 10.0 mi North 5.8 mph - N/A   Overcast
4:15 AM 46.4 °F 42.9 °F 39.2 °F 76% 30.05 in 10.0 mi North 6.9 mph - N/A   Overcast
4:35 AM 44.6 °F 40.7 °F 37.4 °F 76% 30.05 in 10.0 mi North 6.9 mph - N/A   Overcast
4:55 AM 46.4 °F 45.2 °F 39.2 °F 76% 30.05 in 10.0 mi North 3.5 mph - N/A   Overcast
5:15 AM 46.4 °F 44.3 °F 39.2 °F 76% 30.05 in 10.0 mi North 4.6 mph - N/A   Overcast
5:35 AM 46.4 °F 43.5 °F 39.2 °F 76% 30.05 in 10.0 mi North 5.8 mph - N/A   Overcast
5:55 AM 46.4 °F 45.2 °F 41.0 °F 81% 30.06 in 10.0 mi North 3.5 mph - N/A   Overcast
7:55 AM 46.4 °F 43.5 °F 41.0 °F 81% 30.09 in 10.0 mi North 5.8 mph - N/A   Overcast
9:55 AM 48.2 °F - 39.2 °F 71% 30.12 in 10.0 mi North 4.6 mph - N/A   Overcast
10:55 AM 50.0 °F - 37.4 °F 62% 30.14 in 10.0 mi Calm Calm - N/A   Overcast
12:55 PM 51.8 °F - 39.2 °F 62% 30.10 in 10.0 mi North 5.8 mph - N/A   Overcast
3:55 PM 53.6 °F - 35.6 °F 51% 30.10 in 10.0 mi Calm Calm - N/A   Overcast
9:15 PM 50.0 °F - 32.0 °F 50% 30.15 in 10.0 mi North 12.7 mph 18.4 mph N/A   Overcast
9:35 PM 50.0 °F - 32.0 °F 50% 30.15 in 10.0 mi NNE 10.4 mph 17.3 mph N/A   Mostly Cloudy
9:55 PM 50.0 °F - 32.0 °F 50% 30.15 in 10.0 mi North 11.5 mph - N/A   Mostly Cloudy
10:15 PM 50.0 °F - 30.2 °F 47% 30.15 in 10.0 mi NNE 11.5 mph - N/A   Scattered Clouds
10:35 PM 50.0 °F - 32.0 °F 50% 30.17 in 10.0 mi North 11.5 mph - N/A   Clear
10:55 PM 48.2 °F - 32.0 °F 54% 30.17 in 10.0 mi NNE 9.2 mph - N/A   Clear
11:15 PM 48.2 °F - 30.2 °F 50% 30.19 in 10.0 mi NNE 8.1 mph - N/A   Clear
11:35 PM 46.4 °F 41.5 °F 30.2 °F 53% 30.17 in 10.0 mi NNE 10.4 mph - N/A   Clear
11:55 PM 46.4 °F 41.9 °F 30.2 °F 53% 30.17 in 10.0 mi North 9.2 mph - N/A   Clear